Hourly Data Report for January 05, 2013

BAGOTVILLE A
QUEBEC

48°20'00.000" N
71°00'00.000" W
159.10 m
7060400
71727
YBG

Download Data

Hourly Data (January 2013)
Hourly Data Report for January 5, 2013
TIME
LST
Temp Definition
°C
Dew Point Definition
°C
Rel Hum Definition
%
Precip. Amount Definition
mm

Wind Dir Definition
10's deg

Wind Spd Definition
km/h
Visibility Definition
km
Stn Press Definition
kPa
Hmdx Definition


Wind Chill Definition


Weather Definition


00:00 -10.0 -11.2 91   26 4 8.0 98.11   -12 Snow
01:00 -10.0 -11.6 88   26 4 4.8 98.11   -12 Snow
02:00 -9.4 -11.3 86   32 7 3.2 98.22   -13 Snow
03:00 -9.8 -11.8 85   31 32 1.6 98.51   -20 Snow,Blowing Snow
04:00 -11.2 -13.9 80   31 32 2.4 98.77   -21 Snow,Blowing Snow
05:00 -12.5 -14.9 82   30 39 2.4 99.00   -24 Snow,Blowing Snow
06:00 -13.5 -17.7 71   30 33 9.7 99.25   -25 Snow,Blowing Snow
07:00 -14.0 -16.7 80   30 26 8.0 99.45   -24 Snow,Blowing Snow
08:00 -15.2 -19.3 71   29 32 24.1 99.65   -27 Mainly Clear
09:00 -15.5 -20.3 67   29 35 40.2 99.86   -27 Mainly Clear
10:00 -15.4 -20.9 63   29 37 32.2 100.01   -28 Mainly Clear
11:00 -15.5 -20.3 67   29 37 12.9 100.06   -28 Mainly Clear
12:00 -15.6 -21.2 62   29 37 12.9 100.11   -28 Mainly Clear
13:00 -15.7 -21.3 62   30 22 16.1 100.17   -25 Mainly Clear
14:00 -14.8 -20.1 64   31 17 40.2 100.18   -23 Mainly Clear
15:00 -14.9 -19.5 68   31 15 40.2 100.26   -23 Mainly Clear
16:00 -16.8 -21.3 68   29 4 40.2 100.22   -20 Clear
17:00 -17.8 -22.6 66   29 9 24.1 100.25   -24 Clear
18:00 -20.0 -23.8 72   28 7 24.1 100.28   -26 Clear
19:00 -21.8 -26.0 69   27 6 24.1 100.26   -27 Clear
20:00 -25.3 -28.0 78   21 6 24.1 100.25   -31 Clear
21:00 -23.2 -26.7 73   20 7 24.1 100.19   -29 Clear
22:00 -24.1 -26.7 79   20 6 24.1 100.16   -30 Mainly Clear
23:00 -24.6 -28.3 71   18 4 24.1 100.11   -29 Mainly Clear

Notes on Data Quality.

Legend

  • E = Estimated
  • M = Missing
  • NA = Not Available*
  • [empty] = Indicates an unobserved value
Date modified: